Weather reports worldwide

Advertisment
Lefkopa, Cyprus (17515): temperature & dewpoint: 08.12.2019 04:00:00 - 14.12.2019 04:00:00 (EET)Lefkopa, Cyprus (17515): wind speed: 08.12.2019 04:00:00 - 14.12.2019 04:00:00 (EET)Lefkopa, Cyprus (17515): wind direction: 08.12.2019 04:00:00 - 14.12.2019 04:00:00 (EET)Lefkopa, Cyprus (17515): reduced air pressure: 08.12.2019 04:00:00 - 14.12.2019 04:00:00 (EET)Lefkopa, Cyprus (17515): visibility: 08.12.2019 04:00:00 - 14.12.2019 04:00:00 (EET)
Date & Time tt [°C] td [°C] ff [km/h] ff [kn] dd ppp [hPa] vv [km]
14.12.2019 04:00:00 - - - - - - -
14.12.2019 03:00:00 12,9 11,2 8 4 WSW 1012,0 10
14.12.2019 02:00:00 12,2 11,1 8 4 N 1012,2 10
14.12.2019 01:00:00 12,2 11,2 5 3 ENE 1012,1 8
14.12.2019 00:00:00 11,6 10,6 8 4 N 1012,1 10
13.12.2019 23:00:00 11,6 10,6 0 0 N 1012,5 10
13.12.2019 22:00:00 11,7 10,7 8 4 NNE 1012,5 10
13.12.2019 21:00:00 12,2 11,1 5 3 E 1012,5 10
13.12.2019 20:00:00 12,4 11,2 0 0 N 1012,7 10
13.12.2019 19:00:00 12,9 11,4 0 0 N 1012,0 10
13.12.2019 18:00:00 13,8 11,8 8 4 N 1011,6 10
13.12.2019 17:00:00 15,2 12,2 5 3 NE 1011,3 10
13.12.2019 16:00:00 17,0 12,0 11 6 NE 1011,0 10
13.12.2019 15:00:00 17,9 12,5 16 9 ENE 1010,6 10
13.12.2019 14:00:00 17,0 12,7 16 9 NE 1010,4 10
13.12.2019 13:00:00 16,6 13,1 15 8 NNE 1010,8 10
13.12.2019 12:00:00 16,2 12,6 18 10 ENE 1011,4 10
13.12.2019 11:00:00 15,0 11,8 13 7 E 1012,3 10
13.12.2019 10:00:00 12,8 11,3 8 4 ENE 1012,4 10
13.12.2019 09:00:00 8,8 8,0 0 0 N 1012,1 8
13.12.2019 08:00:00 8,2 7,3 0 0 N 1011,9 10
13.12.2019 07:00:00 8,6 7,8 0 0 N 1011,3 10
13.12.2019 06:00:00 8,3 7,5 0 0 N 1011,0 10
13.12.2019 05:00:00 8,4 7,5 0 0 N 1011,0 10
13.12.2019 04:00:00 8,2 7,4 0 0 N 1011,1 10
13.12.2019 03:00:00 7,7 6,8 0 0 N 1011,1 10
13.12.2019 02:00:00 8,2 7,2 0 0 N 1011,2 10
13.12.2019 01:00:00 8,2 7,1 0 0 N 1010,9 10
13.12.2019 00:00:00 8,5 7,4 0 0 N 1010,8 10
12.12.2019 23:00:00 9,2 8,2 0 0 N 1011,1 10
12.12.2019 22:00:00 9,5 8,2 0 0 N 1011,1 10
12.12.2019 21:00:00 9,2 7,7 0 0 N 1010,9 10
12.12.2019 20:00:00 10,2 8,3 0 0 N 1011,0 10
12.12.2019 19:00:00 11,5 8,7 0 0 N 1019,3 10
12.12.2019 18:00:00 12,0 8,1 0 0 N 1009,4 10
12.12.2019 17:00:00 13,5 8,0 9 5 NNW 1009,4 10
12.12.2019 16:00:00 14,0 9,2 18 10 NNW 1009,3 10
12.12.2019 15:00:00 14,1 10,7 0 0 N 1008,4 10
12.12.2019 14:00:00 13,4 10,8 0 0 N 1008,9 10
12.12.2019 13:00:00 12,6 11,7 9 5 W 1009,8 10
12.12.2019 12:00:00 12,4 11,7 0 0 N 1009,9 10
12.12.2019 11:00:00 12,8 12,0 5 3 SE 1010,2 8
12.12.2019 10:00:00 13,4 11,6 11 6 E 1011,2 8
12.12.2019 09:00:00 - - - - - - -
12.12.2019 08:00:00 13,4 11,8 11 6 NE 1010,6 8
12.12.2019 07:00:00 13,4 11,9 15 8 NNE 1010,5 8
12.12.2019 06:00:00 13,7 12,3 9 5 NE 1011,2 8
12.12.2019 05:00:00 14,0 12,3 28 15 E 1011,3 8
12.12.2019 04:00:00 14,2 12,2 28 15 NNE 1011,4 8
12.12.2019 03:00:00 - - - - - - -
12.12.2019 02:00:00 14,7 12,3 21 11 NNE 1013,3 10
12.12.2019 01:00:00 14,5 12,2 16 9 NNE 1013,7 10
12.12.2019 00:00:00 14,8 12,6 22 12 NE 1014,4 10
11.12.2019 23:00:00 14,7 12,1 9 5 NE 1014,7 10
11.12.2019 22:00:00 13,7 11,7 5 3 NE 1015,3 10
11.12.2019 21:00:00 14,1 11,5 15 8 NE 1015,4 10
11.12.2019 20:00:00 13,4 11,5 11 6 NNE 1015,4 10
11.12.2019 19:00:00 12,8 11,1 0 0 N 1016,0 10
11.12.2019 18:00:00 13,4 10,8 0 0 N 1015,8 8
11.12.2019 17:00:00 14,9 9,0 15 8 NE 1015,6 10
11.12.2019 16:00:00 14,6 9,0 11 6 NNE 1015,5 10
11.12.2019 15:00:00 15,0 9,2 16 9 NE 1015,4 10
11.12.2019 14:00:00 14,3 10,1 15 8 NNE 1015,9 8
11.12.2019 13:00:00 15,5 9,8 18 10 NE 1016,3 8
11.12.2019 12:00:00 15,7 10,3 13 7 NNE 1016,7 10
11.12.2019 11:00:00 15,7 9,8 29 16 NNE 1017,4 10
11.12.2019 10:00:00 15,9 9,9 16 9 NNE 1017,3 10
11.12.2019 09:00:00 13,4 11,3 16 9 NNE 1017,2 10
11.12.2019 08:00:00 11,7 10,5 5 3 ENE 1017,3 10
11.12.2019 07:00:00 10,6 9,4 8 4 ENE 1017,4 10
11.12.2019 06:00:00 10,1 8,9 0 0 N 1017,1 10
11.12.2019 05:00:00 10,7 9,4 0 0 N 1017,0 10
11.12.2019 04:00:00 10,1 8,8 0 0 N 1016,8 10
11.12.2019 03:00:00 10,6 9,0 0 0 N 1017,0 10
11.12.2019 02:00:00 11,8 9,7 0 0 N 1017,2 10
11.12.2019 01:00:00 12,1 9,9 0 0 N 1017,4 10
11.12.2019 00:00:00 11,9 10,0 0 0 N 1017,4 10
10.12.2019 23:00:00 11,9 10,0 0 0 N 1017,7 10
10.12.2019 22:00:00 12,0 9,8 0 0 N 1017,8 10
10.12.2019 21:00:00 12,4 9,6 0 0 N 1017,6 9
10.12.2019 20:00:00 12,8 9,4 0 0 N 1017,5 10
10.12.2019 19:00:00 13,4 9,0 8 4 ENE 1017,4 10
10.12.2019 18:00:00 14,1 8,9 5 3 NE 1016,7 10
10.12.2019 17:00:00 14,7 8,8 9 5 ENE 1016,3 10
10.12.2019 16:00:00 16,2 8,8 13 7 NE 1015,7 10
10.12.2019 15:00:00 16,3 9,3 16 9 NNE 1015,9 10
10.12.2019 14:00:00 17,0 9,5 16 9 NNE 1015,7 10
10.12.2019 13:00:00 16,1 9,7 15 8 NNE 1016,2 10
10.12.2019 12:00:00 16,1 10,0 21 11 ENE 1016,5 10
10.12.2019 11:00:00 14,9 10,3 13 7 E 1017,4 10
10.12.2019 10:00:00 12,3 10,3 0 0 N 1017,6 10
10.12.2019 09:00:00 8,2 7,2 0 0 N 1017,8 10
10.12.2019 08:00:00 7,3 6,3 0 0 N 1017,8 10
10.12.2019 07:00:00 5,8 4,9 0 0 N 1017,5 10
10.12.2019 06:00:00 5,8 4,9 0 0 N 1017,5 10
10.12.2019 05:00:00 5,9 5,0 8 4 S 1017,2 10
10.12.2019 04:00:00 5,8 5,0 0 0 N 1017,1 10
10.12.2019 03:00:00 5,5 4,8 0 0 N 1017,4 10
10.12.2019 02:00:00 5,3 4,2 0 0 N 1017,3 10
10.12.2019 01:00:00 6,7 5,6 0 0 N 1017,1 10
10.12.2019 00:00:00 7,3 6,2 5 3 SSW 1016,9 10
09.12.2019 23:00:00 8,2 7,1 0 0 N 1016,9 10
09.12.2019 22:00:00 8,3 7,1 0 0 N 1017,1 10
09.12.2019 21:00:00 9,1 7,8 0 0 N 1016,9 10
09.12.2019 20:00:00 9,4 8,0 0 0 N 1016,8 10
09.12.2019 19:00:00 11,0 9,4 0 0 N 1016,3 10
09.12.2019 18:00:00 11,5 9,6 0 0 N 1015,6 10
09.12.2019 17:00:00 11,5 9,3 0 0 N 1015,2 10
09.12.2019 16:00:00 14,3 9,1 13 7 N 1014,4 8
09.12.2019 15:00:00 14,3 9,1 13 7 N 1014,4 8
09.12.2019 14:00:00 15,3 9,8 0 0 N 1013,8 10
09.12.2019 13:00:00 13,1 11,3 9 5 SSW 1013,9 10
09.12.2019 12:00:00 10,3 9,2 9 5 SW 1015,2 8
09.12.2019 11:00:00 10,8 9,2 13 7 SW 1016,0 8
09.12.2019 10:00:00 11,7 10,3 8 4 WSW 1015,8 8
09.12.2019 09:00:00 10,4 9,3 0 0 N 1015,3 10
09.12.2019 08:00:00 9,7 8,6 0 0 N 1015,4 10
09.12.2019 07:00:00 9,4 8,2 9 5 S 1015,2 9
09.12.2019 06:00:00 8,1 7,0 0 0 N 1014,9 10
09.12.2019 05:00:00 7,9 6,8 0 0 N 1014,9 10
09.12.2019 04:00:00 7,9 6,7 0 0 N 1015,2 10
09.12.2019 03:00:00 7,3 6,0 0 0 N 1015,2 10
09.12.2019 02:00:00 7,5 6,1 0 0 N 1015,4 10
09.12.2019 01:00:00 8,2 6,8 0 0 N 1015,5 10
09.12.2019 00:00:00 10,0 8,5 0 0 N 1015,8 10
08.12.2019 23:00:00 11,3 9,5 0 0 N 1015,9 10
08.12.2019 22:00:00 11,7 9,5 0 0 N 1015,8 10
08.12.2019 21:00:00 9,1 6,3 0 0 N 1015,7 9
08.12.2019 20:00:00 10,2 7,1 0 0 N 1015,7 10
08.12.2019 19:00:00 9,7 6,5 0 0 N 1015,7 10
08.12.2019 18:00:00 12,9 6,9 0 0 N 1014,8 10
08.12.2019 17:00:00 14,9 7,4 0 0 N 1014,3 10
08.12.2019 16:00:00 17,4 8,3 8 4 NNW 1014,0 10
08.12.2019 15:00:00 19,2 6,6 11 6 WSW 1013,7 10
08.12.2019 14:00:00 19,4 5,5 8 4 SW 1013,6 10
08.12.2019 13:00:00 19,2 6,4 11 6 S 1014,1 10
08.12.2019 12:00:00 18,5 6,3 0 0 N 1014,4 10
08.12.2019 11:00:00 16,3 6,1 0 0 N 1016,1 10
08.12.2019 10:00:00 12,5 5,3 0 0 N 1016,7 10
08.12.2019 09:00:00 10,6 6,8 0 0 N 1016,9 10
08.12.2019 08:00:00 7,0 4,4 0 0 N 1017,1 10
08.12.2019 07:00:00 7,1 4,4 0 0 N 1016,9 10
08.12.2019 06:00:00 8,8 4,9 0 0 N 1016,7 10
08.12.2019 05:00:00 10,0 5,7 0 0 N 1016,6 10
08.12.2019 04:00:00 10,2 6,2 0 0 N 1016,9 10

tt = temperature
td = dewpoint
ff = wind speed
dd = wind direction
ppp = reduced air pressure
vv = visibility

Next stations